AO-07 1 07530U 74089B 26255.99247534 -.00000039 00000-0 49142-4 0 9993 2 07530 101.9920 270.1572 0012058 325.1941 61.1110 12.53699587371527 UO-11 1 14781U 84021B 26256.14272739 .00001037 00000-0 11059-3 0 9992 2 14781 97.8166 220.7939 0006073 249.9200 110.1365 14.90987315270232 LO-19 1 20442U 90005G 26256.02000852 .00000054 00000-0 35871-4 0 9991 2 20442 98.8824 280.2345 0010685 312.1961 47.8315 14.34143470914980 AO-27 1 22825U 93061C 26256.10329912 .00000059 00000-0 39545-4 0 9990 2 22825 98.6800 323.4491 0008067 194.9667 165.1279 14.30960842719578 FO-29 1 24278U 96046B 26256.06948268 -.00000017 00000-0 20745-4 0 9993 2 24278 98.5170 92.8934 0349102 228.2623 128.8179 13.53277936485058 GO-32 1 25397U 98043D 26255.93791030 .00000022 00000-0 29687-4 0 9992 2 25397 99.0150 250.9421 0001122 17.3116 342.8100 14.24442506463823 ISS 1 25544U 98067A 26256.17555434 .00004898 00000-0 96695-4 0 9993 2 25544 51.6307 224.6171 0004917 134.6730 225.4659 15.49096932585393 NO-44 1 26931U 01043C 26256.09379750 .00000048 00000-0 48791-4 0 9995 2 26931 67.0527 16.8983 0005732 272.4898 87.5548 14.31983099303035 SO-50 1 27607U 02058C 26256.08215901 .00000754 00000-0 10646-3 0 9990 2 27607 64.5513 217.0040 0072097 246.3395 113.0132 14.83208522277494 CO-55 1 27844U 03031E 26256.26712754 .00000187 00000-0 99845-4 0 9992 2 27844 98.6771 263.7330 0008454 292.9115 67.1171 14.24380509204217 RS-22 1 27939U 03042A 26256.29555733 .00000252 00000-0 46928-4 0 9991 2 27939 98.3475 83.1684 0011239 356.0387 124.7027 14.73595874228521 CO-65 1 32785U 08021C 26256.26152555 .00003142 00000-0 19657-3 0 9999 2 32785 97.8371 239.6043 0010497 89.3631 270.8801 15.10148755998481 CO-66 1 32791U 08021J 26255.99308503 .00014870 00000-0 43312-3 0 9996 2 32791 97.7562 258.2954 0003228 45.4161 314.7344 15.35500824 741 RS-30 1 32953U 08025A 26256.30246507 .00000062 00000-0 37353-3 0 9997 2 32953 82.5030 300.6393 0020666 118.3352 241.9816 12.43182959830645 SRMSAT 1 37841U 11058D 26256.08625225 .00000366 00000-0 54623-4 0 9998 2 37841 19.9711 247.4276 0011987 91.1670 323.4658 14.11592011770252 ZACUBE-1 1 39417U 13066B 26255.64409639 .00004248 00000-0 32534-3 0 9999 2 39417 97.8132 218.4269 0040009 320.6731 39.1589 15.01788424693859 Delfi-N3xt 1 39428U 13066N 26256.22598585 .00003876 00000-0 33323-3 0 9998 2 39428 97.8295 176.4930 0071353 273.9705 85.3361 14.96070314687787 GOMX-1 1 39430U 13066Q 26256.29194508 .00001303 00000-0 20031-3 0 9990 2 39430 97.6434 91.2019 0128470 153.7281 207.0519 14.69689182682852 LO-74 1 39440U 13066AA 26255.86630624 .00002874 00000-0 26453-3 0 9995 2 39440 97.8977 205.2795 0058590 96.3658 264.4239 14.94251623690083 AO-73 1 39444U 13066AE 26256.18948100 .00005136 00000-0 31131-3 0 9999 2 39444 97.8381 229.5889 0033407 263.8581 95.8841 15.10572630692940 DTUSAT-2 1 40030U 14033W 26255.98513021 .00004682 00000-0 24761-3 0 9990 2 40030 98.0914 259.3803 0006209 302.4998 57.5632 15.15999708665988 LILACSAT-2 1 40908U 15049K 26256.29693310 .00013994 00000-0 21613-3 0 9996 2 40908 97.4559 296.6242 0004572 294.3742 65.7033 15.54224451609420 Lapan A3 1 41603U 16040E 26256.29058465 .00002840 00000-0 89626-4 0 9994 2 41603 97.1563 249.6059 0011918 64.3192 295.9280 15.33587184568310 CAS-2T 1 41847U 16066G 26256.19329706 .00000805 00000-0 12242-3 0 9998 2 41847 98.3757 330.9168 0340447 222.3377 135.1082 14.44838185517507 TechnoSat 1 42829U 17042E 26256.00161898 .00001958 00000-0 14024-3 0 9990 2 42829 97.4392 50.4059 0018164 150.0475 210.1795 15.05387999499919 AO-91 1 43017U 17073E 26255.62380646 .00007196 00000-0 30542-3 0 9998 2 43017 97.4559 121.0531 0148240 27.0260 333.8591 15.13875574478619 S-Net D 1 43186U 18014G 26256.18859450 .00003238 00000-0 16545-3 0 9997 2 43186 97.5256 160.4241 0009868 76.2990 283.9341 15.17365142472109 S-Net B 1 43187U 18014H 26256.20183763 .00003609 00000-0 18413-3 0 9996 2 43187 97.5262 160.4263 0010395 72.2044 288.0323 15.17333777472109 S-Net A 1 43188U 18014J 26255.72537359 .00003364 00000-0 17169-3 0 9992 2 43188 97.5272 160.1787 0010330 74.2289 286.0082 15.17370818472030 S-Net C 1 43189U 18014K 26256.20625182 .00003737 00000-0 19053-3 0 9997 2 43189 97.5289 160.7447 0011590 66.0865 294.1581 15.17323865470656 Ten-Koh 1 43677U 18084G 26256.12992784 .00001117 00000-0 87361-4 0 9990 2 43677 98.0739 92.2143 0009414 172.8744 187.2616 15.03241460429379 PO-101 1 43678U 18084H 26256.32208708 .00000855 00000-0 72606-4 0 9993 2 43678 98.1175 96.4100 0011435 232.9476 127.0701 15.00721129429436 QO-100 1 43700U 18090A 26256.08339661 .00000132 00000-0 00000-0 0 9995 2 43700 0.0137 128.5331 0002574 76.4732 202.8994 1.00274270 28554 MinXSS-2 1 43758U 18099A 26255.70123890 .00037988 00000-0 60661-3 0 9991 2 43758 97.4455 334.9087 0005106 299.5297 60.5446 15.53088763427680 AO-95 1 43770U 18099N 26256.11730457 .00009003 00000-0 32803-3 0 9998 2 43770 97.4289 316.1018 0009145 45.8910 314.3080 15.28381885426648 SNUSat 2 1 43782U 18099AA 26256.14290066 .00005321 00000-0 22895-3 0 9990 2 43782 97.3970 308.2064 0009582 357.0084 3.1094 15.23011391426415 SnugLite 1 43784U 18099AC 26256.09045239 .00009081 00000-0 32672-3 0 9997 2 43784 97.3778 309.5689 0002391 15.6657 344.4657 15.28827991426742 ITASat 1 1 43786U 18099AE 26256.13059157 .00004532 00000-0 21309-3 0 9999 2 43786 97.3938 305.9044 0013396 50.8435 309.3988 15.20003237426264 EAGLET 1 1 43790U 18099AJ 26255.66954641 .00002958 00000-0 16859-3 0 9997 2 43790 97.4146 303.0139 0012154 49.3840 310.8447 15.13497058425568 ESEO 1 43792U 18099AL 26256.04710411 .00001633 00000-0 12076-3 0 9993 2 43792 97.3906 289.6549 0012725 38.8716 321.3424 15.04461424425016 JO-97 1 43803U 18099AX 26256.10186225 .00012363 00000-0 35200-3 0 9999 2 43803 97.4035 319.3648 0004109 327.8305 32.2687 15.36246053427112 Suomi 100 1 43804U 18099AY 26256.14253545 .00008231 00000-0 28356-3 0 9997 2 43804 97.4096 316.2825 0008558 336.7718 23.3134 15.30252526426867 ISAT 1 43879U 18111D 26256.28118851 .00401296 65772-4 10679-2 0 9996 2 43879 97.5801 199.7689 0007583 130.3315 229.8623 15.94526516425042 UWE-4 1 43880U 18111E 26256.08305076 .00034852 00000-0 58727-3 0 9999 2 43880 97.5823 188.8716 0007484 29.4597 330.7075 15.51586422424382 Prox-1 1 44339U 19036A 26256.03001475 .00010970 00000-0 10160-2 0 9990 2 44339 23.9939 246.5951 0004973 338.3961 21.6328 14.92446596386603 Taurus 1 1 44530U 19059C 26256.24034947 .00003243 00000-0 51491-3 0 9999 2 44530 98.6495 66.6333 0008957 41.2507 318.9374 14.72871567371604 TO-108 1 44881U 19093C 26256.28806020 .00000695 00000-0 84223-4 0 9997 2 44881 97.7465 326.3424 0014074 151.3522 208.8470 14.86630854364506 RS-44 1 44909U 19096E 26256.11327592 .00000013 00000-0 16560-4 0 9998 2 44909 82.5174 281.2819 0216471 298.9499 59.0049 12.79749359313591 SALSAT 1 46495U 20068K 26256.02383089 .00005861 00000-0 19897-3 0 9995 2 46495 97.8880 264.5290 0009351 5.4494 354.6845 15.30897295328795 CSS (TIANHE-1) 1 48274U 21035A 26256.17612433 .00017557 00000-0 21566-3 0 9992 2 48274 41.4680 147.8011 0002646 275.2341 84.8195 15.59875810306906 TeikyoSat 4 1 49396U 21102B 26256.07794372 .00001469 00000-0 94670-4 0 9997 2 49396 97.3630 282.1396 0011798 358.7417 1.3781 15.09768195265984 Z-Sat 1 49399U 21102E 26256.29788340 .00003321 00000-0 16223-3 0 9998 2 49399 97.3263 288.9530 0014947 303.0000 56.9797 15.18842611266815 KOSEN 1 1 49402U 21102H 26256.05994046 .00004928 00000-0 18330-3 0 9994 2 49402 97.3105 296.5412 0011586 253.7173 106.2793 15.27912208267431 HO-113 1 50466U 21131B 26256.28423005 .00000309 00000-0 10887-3 0 9993 2 50466 98.4982 348.1950 0004035 176.7570 183.3645 14.41423618247803 SNUGLITE 2 1 52899U 22065F 26255.96816263 .00000667 00000-0 13506-3 0 9996 2 52899 98.2331 40.7136 0008685 106.3621 253.8537 14.64482400223843 UmKA 1 (RS40S) 1 57172U 23091G 26256.23498167 .00004298 00000-0 19287-3 0 9991 2 57172 97.4959 314.6041 0012903 165.1571 195.0046 15.21659671177392 CubeBel-2 (EU11S) 1 57175U 23091K 26256.27141572 .00009136 00000-0 30670-3 0 9998 2 57175 97.4961 320.3570 0010092 155.1609 205.0119 15.31047944177777 RS-38S 1 57189U 23091Z 26256.28021345 .00013366 00000-0 35270-3 0 9990 2 57189 97.5011 327.6576 0008110 113.1169 247.0931 15.38568377178222 SONATE-2 1 59112U 24043Q 26255.96403758 .00045256 00000-0 44851-3 0 9990 2 59112 97.5617 52.2589 0005285 232.4803 127.5976 15.65681820141597 GRBBeta 1 60237U 24128C 26256.14226900 .00002040 00000-0 14829-3 0 9993 2 60237 61.9880 267.5467 0027789 154.0370 206.2124 15.07164180119520 Curium One 1 60242U 24128H 26256.13052121 .00004989 00000-0 28662-3 0 9994 2 60242 61.9764 254.0221 0026779 149.1723 211.0953 15.13600302119769 ROBUSTA-3A 1 60243U 24128J 26256.14637160 .00003860 00000-0 23010-3 0 9997 2 60243 61.9845 256.9374 0028843 146.0334 214.2616 15.12697755119722 CatSat 1 60246U 24125J 26256.08659258 .00090374 00000-0 70636-3 0 9994 2 60246 97.1961 110.4510 0015115 204.2189 155.8366 15.71210970121139 AO-123 1 61781U 24199AY 26256.22837782 .00005916 00000-0 16622-3 0 9999 2 61781 97.2847 124.1111 0013332 0.5494 359.5763 15.36820576147448 LASARsat 1 62391U 24247Q 26255.03457442 .00034352 00000-0 56378-3 0 9998 2 62391 44.9719 132.2111 0008734 184.2264 175.8556 15.51841192 96781 CroCube 1 62394U 24247T 26255.99435768 .00041400 00000-0 60899-3 0 9998 2 62394 44.9688 122.3384 0009523 200.0625 159.9895 15.54776814 96988 JINJUSat 1B 1 63210U 25052A 26256.16270086 .00012621 00000-0 36178-3 0 9997 2 63210 97.3870 153.1382 0004987 112.5371 247.6401 15.36026177 83596 NUSHSAT 1 1 63211U 25052B 26255.65535859 .00018597 00000-0 48007-3 0 9995 2 63211 97.3849 153.5393 0004651 115.1621 245.0107 15.39188168 83580 TEVEL2-4 1 63213U 25052D 26255.99560891 .00016022 00000-0 43767-3 0 9997 2 63213 97.3768 152.6542 0004008 122.6638 237.4994 15.37475711 83596 TEVEL2-5 1 63214U 25052E 26255.70187488 .00015042 00000-0 41417-3 0 9995 2 63214 97.3764 152.2798 0003895 124.5192 235.6421 15.37243662 83549 TEVEL2-6 1 63215U 25052F 26256.17182181 .00014001 00000-0 38596-3 0 9991 2 63215 97.3767 152.7363 0003823 123.7920 236.3689 15.37226093 83618 TEVEL2-1 1 63217U 25052H 26256.16929908 .00013200 00000-0 37162-3 0 9996 2 63217 97.3739 152.2461 0003668 134.5262 225.6283 15.36583687 83591 TEVEL2-3 1 63218U 25052J 26256.16014938 .00013527 00000-0 37983-3 0 9998 2 63218 97.3743 152.2723 0003471 131.5946 228.5596 15.36659316 83598 TEVEL2-2 1 63219U 25052K 26256.16893093 .00013373 00000-0 37628-3 0 9991 2 63219 97.3740 152.2499 0003662 134.7086 225.4457 15.36597772 83597 TEVEL2-9 1 63237U 25052AD 26256.07069690 .00012884 00000-0 38899-3 0 9996 2 63237 97.3800 151.3212 0005939 167.8095 192.3292 15.34377467 83496 TEVEL2-7 1 63238U 25052AE 26255.67375680 .00013400 00000-0 40921-3 0 9995 2 63238 97.3804 150.7996 0005883 170.5927 189.5427 15.34006849 83420 TEVEL2-8 1 63239U 25052AF 26255.68274622 .00013122 00000-0 40093-3 0 9992 2 63239 97.3812 150.7830 0005867 170.5303 189.6051 15.33996621 83426 SPIRONE 1 66657U 25274H 26255.34107092 .00001686 00000-0 16393-3 0 9992 2 66657 97.7478 183.4005 0013626 84.7530 275.5245 14.93834547 43230 K-HERO 1 66660U 25274L 26255.58994566 .00001108 00000-0 10848-3 0 9990 2 66660 97.7485 183.8702 0015461 87.5529 272.7461 14.94230487 43286 SNUGLITE-III DURI 1 66661U 25274M 26255.71030714 .00001069 00000-0 10482-3 0 9992 2 66661 97.7483 184.0094 0016109 88.0023 272.3042 14.94240905 43307 SAKHACUBE-CHOLBON 1 67290U 25313AU 26255.65721677 .00007242 00000-0 28162-3 0 9996 2 67290 97.3868 329.6522 0010001 54.3075 305.9093 15.26287455 39312 RS95S (QMR-KWT-2) 1 67291U 25313AV 26256.13569314 .00009647 00000-0 35158-3 0 9993 2 67291 97.3863 330.5266 0009284 50.9615 309.2450 15.28352246 39415 Ten-Koh2 1 68261U 25241B 26255.34025420 .00003661 00000-0 15879-3 0 9996 2 68261 51.6611 264.5265 0008076 72.6079 287.5782 15.24846504 28207 JACK-002 1 68417U 26067B 26256.11933501 .00005055 00000-0 23556-3 0 9990 2 68417 97.4665 213.7251 0002037 30.1561 329.9791 15.20337504 25304 DISCO 2 1 68431U 26067R 26256.15243124 .00006314 00000-0 29425-3 0 9995 2 68431 97.4697 213.7578 0003933 67.9887 292.1765 15.20237326 25305 HADES-SA (SpinnyONE) 1 68446U 26067AG 26256.14646937 .00014052 00000-0 62133-3 0 9990 2 68446 97.4489 213.3370 0008649 117.7122 242.4993 15.21773650 25296 PARUS-6U1 1 68456U 26067AS 26256.19320620 .00003737 00000-0 18539-3 0 9993 2 68456 97.4650 213.2962 0007287 110.7442 249.4574 15.18310618 25286 SAL-E 1 68458U 26067AU 26255.63849269 .00006209 00000-0 30103-3 0 9996 2 68458 97.4571 212.6498 0007406 119.3448 240.8527 15.18850452 25201 FSI-SAT 2 1 68792U 26088A 26256.18962139 .00002642 00000-0 17810-3 0 9990 2 68792 97.5193 43.3419 0014733 160.9514 199.2268 15.07426254 21541 OrigamiSat 2 1 68795U 26088D 26255.85539008 .00009011 00000-0 54927-3 0 9998 2 68795 97.5180 43.4761 0015538 135.0594 225.1896 15.10488988 21526 ARICA 2 1 68796U 26088E 26255.97266068 .00003693 00000-0 23673-3 0 9999 2 68796 97.5184 43.4593 0016419 134.4831 225.7743 15.09022451 21535 WASEDA-SAT-ZERO-II 1 68797U 26088F 26255.94849810 .00004989 00000-0 31436-3 0 9994 2 68797 97.5184 43.4851 0016265 133.8817 226.3758 15.09494094 21538 MANGARO-II-Piscus 1 68798U 26088G 26256.20518840 .00002685 00000-0 17164-3 0 9994 2 68798 97.5198 43.7772 0019905 136.2489 224.0322 15.09318775 21572 CO-128 1 69912U 26156AV 26256.19684319 .00001243 00000-0 13149-3 0 9990 2 69912 97.7478 155.4379 0001005 297.7207 62.3909 14.90939891 10110 MARINA 1 69920U 26156BD 26255.67380007 .00001832 00000-0 18554-3 0 9997 2 69920 97.7445 155.0210 0006085 298.2342 61.8262 14.92156135 10044 IO-86 1 40931U 26199.45381863 .00000000 00000-0 77536-4 0 07 2 40931 6.0006 322.6653 0012733 338.8432 273.6875 14.79294310 03 LILIUM-4 1 71922C 26067AC 26089.50133053 -.00014632 00000 0 -74472-3 0 04 2 71922 97.4497 49.1617 0004341 5.9603 355.7042 15.16896692 16